Location: Belpeuch
(44.9782°N, 1.9362°E)
Time: 09:39:38
(UTC+00:00)

Daily predictions for brighter satellites

Satellite Brightness Start Highest point End
(mag) Time Altitude Azimuth Time Altitude Azimuth Time Altitude Azimuth
CZ-4C R/B 3.1 19:40:27 10° NW 19:47:45 87° NE 19:56:13 10° SE
IRS-1A Rocket 4.4 19:45:25 10° SSE 19:51:12 76° ENE 19:57:07 10° NNW
Cosmos 1782 2.7 19:51:23 10° S 19:55:21 78° E 19:59:20 10° NNE
USA 308 2.9 19:51:50 10° NW 19:56:09 86° NE 20:00:27 10° SE
Cosmos 1933 4.3 19:55:07 10° SSW 19:59:02 51° WNW 20:02:58 10° N
X-37B 3.2 19:57:59 10° WSW 19:59:16 12° SW 20:00:32 10° SSW
Cosmos 1500 3.3 19:58:28 10° N 20:02:10 55° E 20:05:49 10° SSE
Cosmos 1437 2.3 20:00:41 10° S 20:03:31 86° E 20:06:21 10° NNE
Meteor 1-5 Rocket 4.4 20:02:16 10° N 20:07:29 51° ENE 20:12:37 10° SSE
SJ-6B 3.9 20:03:51 10° S 20:07:38 45° W 20:11:32 10° NNW
ERS-2 4.0 20:07:06 10° N 20:10:27 35° WNW 20:13:46 10° SW
Terra 3.9 20:13:14 10° E 20:15:35 14° ENE 20:17:58 10° NNE
Cosmos 1515 Rocket 3.6 20:15:08 10° S 20:19:27 61° E 20:23:47 10° NNE
USA 267 4.3 20:16:07 10° SSE 20:22:01 36° SW 20:27:58 10° WNW
Cosmos 2228 Rocket 4.1 20:19:04 13° SE 20:22:18 28° E 20:26:08 10° NNE
Cosmos 2315 Rocket 4.3 20:16:40 10° SSW 20:23:02 78° W 20:29:28 10° N
Cosmos 1633 Rocket 3.8 20:18:55 10° NNW 20:23:13 53° W 20:27:31 10° S
Tianhe-1 2.0 20:20:29 10° SW 20:23:15 29° SSE 20:25:05 17° ESE
Resurs 01 Rocket 1.6 20:21:39 10° SSE 20:26:06 84° ENE 20:30:33 10° NNW
BREEZE M DEB (TANK) 2.7 20:24:25 10° WNW 20:29:16 49° N 20:31:12 13° E
Cosmos 1328 Rocket 4.2 20:26:08 10° SSW 20:30:30 57° WNW 20:34:51 10° N
SWARM A 4.2 20:27:29 10° N 20:30:47 66° E 20:33:28 15° S
Cosmos 2082 Rocket 2.3 20:25:30 10° NNW 20:31:08 70° ENE 20:35:40 16° SE
SPOT 1/Viking Rocket 3.8 20:27:48 14° SE 20:32:06 54° ENE 20:37:08 10° N
ERS-1 Rocket 4.2 20:29:27 14° ESE 20:32:48 28° ENE 20:37:03 10° N
USA 305 3.5 20:29:34 10° WNW 20:33:40 47° SW 20:36:40 17° SSE
Cosmos 1943 Rocket 3.2 20:35:05 16° SE 20:38:13 25° ESE 20:42:43 10° NE
Spot 2 Rocket 4.0 20:35:19 17° SE 20:38:56 46° ENE 20:43:45 10° N
Cosmos 1538 Rocket 4.3 20:34:42 10° NNW 20:40:01 66° WSW 20:44:50 12° S
Cosmos 1470 Rocket 4.1 20:36:14 10° NNW 20:40:41 62° W 20:45:06 10° S
OBJECT-B 3.7 20:38:56 10° SW 20:40:44 14° W 20:42:35 10° WNW
Meteor 1-10 Rocket 4.2 20:36:21 10° S 20:41:54 69° E 20:47:34 10° NNE
ERBS 4.0 20:39:44 10° NNW 20:42:33 25° NNE 20:44:57 12° E
CARTOSAT-1 4.2 20:42:26 20° SE 20:44:58 41° ENE 20:49:02 10° N
Landsat 7 3.9 20:40:49 13° S 20:45:04 82° WSW 20:49:52 10° NNW
SPOT 5 3.9 20:42:26 18° ESE 20:45:44 36° ENE 20:50:35 10° N
Cosmos 1536 3.6 20:43:07 10° N 20:46:52 36° ENE 20:48:43 23° SE
CZ-2C R/B 3.6 20:43:40 10° NNE 20:48:13 76° ESE 20:52:49 10° S
SPOT 3 Rocket 3.8 20:43:35 11° S 20:48:28 70° WSW 20:53:37 10° NNW
Cosmos 1271 Rocket 2.7 20:44:51 10° S 20:48:50 85° E 20:52:52 10° NNE
COSMOS 2406 4.2 20:47:36 10° NW 20:52:55 42° WSW 20:58:07 10° S
USA 306 4.0 20:49:24 10° WNW 20:53:17 34° SW 20:55:36 20° S
ISS -3.8 20:50:42 10° WSW 20:54:04 86° NNW 20:57:27 10° ENE
Cosmos 1680 Rocket 3.8 20:49:00 10° NNW 20:54:17 58° ENE 20:57:31 23° SE
Cosmos 1933 Rocket 3.8 20:50:06 10° NNW 20:54:26 67° W 20:57:58 15° S
Cosmos 2278 Rocket 3.2 20:49:27 10° SW 20:54:55 49° WNW 21:00:26 10° NNE
SJ 16-02 2.3 20:53:10 10° SW 20:57:28 50° WNW 21:01:48 10° N
Cosmos 2084 Rocket 4.1 20:54:17 10° NNW 20:58:25 48° NE 21:00:52 23° ESE
Cosmos 2369 Rocket 3.5 20:58:47 19° ESE 20:59:40 20° E 21:03:38 10° NE
Cosmos 1544 3.9 20:56:53 10° N 21:00:14 34° ENE 21:01:17 28° ESE
IGS 5A 4.4 20:57:54 12° S 21:01:31 44° W 21:05:30 10° NNW
Cosmos 1666 3.5 21:03:19 10° NNW 21:06:54 46° W 21:09:29 17° SSW
JB-3 4.2 21:06:25 10° NNE 21:10:15 66° E 21:12:01 29° S
Cosmos 1733 Rocket 4.3 21:07:31 10° NNE 21:11:11 26° ENE 21:12:25 23° E
ARIANE 5 R/B 2.5 21:10:14 28° SSE 21:12:28 85° E 21:16:51 10° NNW
NOSS 3-4 (A) 4.3 21:10:26 10° NW 21:17:21 56° WSW 21:22:33 21° S
NOSS 3-4 (C) 4.3 21:10:32 10° NW 21:17:28 57° WSW 21:22:39 21° S
Iridium 4 Rocket 4.0 21:12:28 12° S 21:17:58 71° W 21:23:53 10° N
BREEZE-M DEB (TANK) 1.8 21:16:38 10° WNW 21:18:36 50° NNE 21:18:57 44° ENE
USA 245 3.0 21:18:30 38° WSW 21:18:38 38° W 21:20:53 10° NNW
Cosmos 990 Rocket 4.0 21:18:14 10° SSW 21:23:28 81° WNW 21:28:46 10° NNE
Cosmos 1833 Rocket 4.5 21:19:17 10° NW 21:23:42 24° WSW 21:28:07 10° SSW
OAO 3 Rocket 4.4 21:21:43 10° SW 21:24:51 23° SSW 21:24:51 23° SSW
Cosmos 1898 Rocket 3.5 21:21:37 13° SSW 21:26:28 87° ESE 21:31:50 10° NNE
Meteor 1-27 Rocket 3.9 21:24:44 14° SSW 21:29:54 78° W 21:35:53 10° N
ATLAS 2AS CENTAUR R/B 2.8 21:23:29 10° NW 21:30:48 75° WSW 21:34:29 30° SSE
SL-24 R/B - RUBIN 2 3.9 21:26:46 10° NW 21:32:09 72° WSW 21:34:02 37° SSE
Cosmos 44 3.6 21:28:23 10° NW 21:33:47 69° WSW 21:35:56 35° SSE
Cosmos 1818 3.5 21:30:58 10° NW 21:36:29 84° NE 21:38:46 37° SE
Cosmos 2154 Rocket 4.2 21:30:48 10° NNW 21:37:05 71° W 21:41:00 24° S
Cosmos 1743 2.6 21:34:30 10° N 21:38:23 75° E 21:39:06 56° SSE
Nadezhda 1 Rocket 4.2 21:35:33 14° SSW 21:41:00 68° W 21:47:12 10° N
Cosmos 962 Rocket 4.4 21:35:49 10° N 21:41:57 76° E 21:44:46 34° SSE
Meteor 1-19 Rocket 4.4 21:43:17 38° SE 21:44:46 48° E 21:49:58 10° NNE
BREEZE-M R/B 3.2 21:45:18 10° WNW 21:47:36 36° NNE 21:48:00 33° NE
H-2A R/B 3.3 21:47:16 10° NNE 21:51:28 82° ESE 21:52:23 53° S
Terra 1.8 21:51:09 44° S 21:52:41 81° WSW 21:57:29 10° NNW
Cosmos 1461 3.2 21:50:19 14° SW 21:54:21 78° NW 21:59:00 10° NNE
Gbstr 26 Del rocket 4.1 21:47:50 10° WNW 21:55:26 82° SSW 21:58:20 36° SE
Cosmos 1862 Rocket 3.4 21:57:49 59° SE 21:58:21 66° E 22:02:38 10° NNE
Cosmos 1340 Rocket 3.6 21:55:27 10° NNW 21:59:22 46° W 22:00:21 38° SW
Tianhe-1 3.6 21:56:30 10° WSW 21:57:04 14° WSW 21:57:04 14° WSW
Cosmos 2297 4.2 21:54:06 10° SW 21:59:42 58° WNW 22:05:19 10° NNE
Okean 1 3.1 22:00:55 71° S 22:01:19 85° E 22:05:18 10° N
ATLAS CENTAUR R/B 2.8 22:10:15 22° ENE 22:10:15 22° ENE 22:11:55 10° NE
Cosmos 1607 4.0 22:06:38 38° S 22:08:57 59° ESE 22:15:19 10° NE
ERS-1 Rocket 3.9 22:09:26 28° SW 22:11:25 39° W 22:16:08 10° NNW
Cosmos 1515 4.2 22:13:57 48° WSW 22:14:28 53° WNW 22:18:11 10° N
Cosmos 2082 Rocket 4.2 22:10:53 10° WNW 22:14:35 18° W 22:17:31 12° SW
Cosmos 2366 rocket 3.9 22:10:43 10° N 22:16:57 79° E 22:18:59 45° SSE
Cosmos 2181 Rocket 3.9 22:16:13 41° S 22:18:34 89° E 22:24:44 10° N
ERBS 3.7 22:15:37 10° WNW 22:17:42 31° W 22:17:42 31° W
Cosmos 1937 Rocket 4.4 22:17:04 15° SW 22:21:05 45° WNW 22:26:04 10° N
Cosmos 489 Rocket 4.5 22:15:00 10° NNW 22:21:14 74° WSW 22:23:16 45° S
Cosmos 1943 Rocket 2.9 22:16:30 12° SW 22:21:37 52° WNW 22:27:05 10° NNE
SPOT 5 4.3 22:21:39 24° SW 22:23:47 32° W 22:28:33 10° NNW
Milstar 3 4.3 22:18:37 10° WSW 22:28:50 28° SSW 22:29:20 28° SSW
Cosmos 1867 3.5 22:28:40 44° SSW 22:30:28 87° ESE 22:35:59 10° NE
Cosmos 1656 Rocket 3.5 22:30:07 58° SSE 22:30:59 68° ESE 22:36:30 10° NNE
ISS -1.7 22:28:13 10° WNW 22:31:12 28° N 22:34:12 10° NE
Spot 4 4.2 22:30:35 49° ESE 22:31:16 53° ENE 22:36:01 10° N
Cosmos 1238 Rocket 4.0 22:31:08 10° NNW 22:36:38 49° W 22:37:53 40° SW
Cosmos 1975 3.1 22:37:25 10° NNW 22:41:09 60° WNW 22:41:09 60° WNW
Cosmos 1048 Rocket 3.9 22:36:41 10° NNW 22:42:00 80° ENE 22:42:47 65° SE
Cosmos 2369 Rocket 2.5 22:40:30 32° SW 22:43:07 64° WNW 22:48:46 10° NNE
Cosmos 2218 Rocket 4.3 22:40:24 10° NNW 22:46:38 62° W 22:48:39 42° SSW
ALOS 2 3.3 22:47:43 42° ENE 22:47:52 42° ENE 22:52:00 10° N
Cosmos 1733 Rocket 4.4 22:45:14 10° NNW 22:48:56 28° W 22:49:30 27° WSW
BREEZE-M DEB (TANK) 4.3 22:34:34 10° WNW 22:50:52 90° NNE 22:52:47 44° ESE
Okean 3 4.4 22:51:44 38° ENE 22:51:44 38° ENE 22:55:03 10° NNE
Lacrosse 5 2.8 22:54:17 34° E 22:54:17 34° E 22:57:35 10° ENE
RESURS DK-1 2.7 22:49:56 10° NNW 22:53:36 62° WNW 22:53:36 62° WNW
SL-27 R/B 3.7 22:50:47 10° NNW 22:53:01 39° N 22:53:01 39° N
Cosmos 1356 Rocket 4.0 22:53:44 10° N 22:57:43 52° ENE 22:57:43 52° ENE
Nadezhda 3 Rocket 4.0 22:59:44 56° SSE 23:00:58 70° E 23:07:08 10° NNE
Cosmos 1908 Rocket 4.2 23:04:47 10° NNW 23:09:02 48° W 23:09:02 48° W
Cosmos 2298 Rocket 4.3 23:09:55 49° WSW 23:11:06 63° WNW 23:16:23 10° NNE
Meteor 1-12 Rocket 4.1 23:05:34 10° N 23:11:25 81° E 23:12:18 65° SSE
Thor Agena Rocket 4.2 23:10:42 10° NNE 23:15:40 40° E 23:15:40 40° E
Sich 1 Rocket 4.0 23:12:21 10° N 23:16:39 55° ENE 23:16:39 55° ENE
COSMOS 2455 4.1 23:12:43 10° NNW 23:18:11 34° NE 23:21:45 19° E
Cosmos 1805 4.3 23:15:24 10° N 23:18:27 41° NE 23:18:27 41° NE
Cosmos 494 Rocket 4.0 23:15:15 10° NNW 23:20:23 65° WSW 23:20:30 65° WSW
Cosmos 1378 4.1 23:22:00 47° N 23:22:00 47° N 23:24:45 10° N
Cosmos 2242 Rocket 4.3 23:21:30 44° W 23:21:43 44° WNW 23:26:02 10° N
Cosmos 1066 Rocket 4.1 23:22:33 67° SSE 23:23:11 75° E 23:28:48 10° NNE
COBE Rocket 3.8 23:26:12 78° SSE 23:26:32 86° ENE 23:31:44 10° N
Okean 2 Rocket 3.6 23:24:07 10° N 23:28:09 49° ENE 23:28:09 49° ENE
Meteor 1-15 Rocket 4.3 23:23:23 10° N 23:29:08 71° ENE 23:30:02 60° SE
Cosmos 2239 Rocket 4.5 23:23:46 10° N 23:30:07 80° W 23:31:22 59° SSW
Cosmos 2151 Rocket 4.4 23:26:08 10° N 23:30:21 41° ENE 23:30:21 41° ENE
Cosmos 2227 Rocket 4.2 23:29:03 10° N 23:33:25 22° NE 23:37:44 10° E
Okean 1-7 4.1 23:33:21 35° WNW 23:33:25 35° WNW 23:37:23 10° N
Cosmos 44 Rocket 3.4 23:29:52 10° NW 23:34:54 69° WSW 23:34:54 69° WSW
Cosmos 2297 Rocket 3.8 23:30:56 10° N 23:35:49 28° NE 23:39:09 17° E
Cosmos 1766 4.2 23:33:51 10° N 23:36:58 45° NE 23:36:58 45° NE
NOSS 2-1 (C) 4.2 23:39:14 10° NW 23:44:17 81° SW 23:45:14 64° SSE
Cosmos 1125 Rocket 4.3 23:44:32 36° W 23:45:50 43° WNW 23:50:49 10° N
ATLAS CENTAUR R/B 3.3 23:46:20 19° WNW 23:47:24 22° NW 23:50:26 10° NNE
COSMOS 2487 4.1 23:44:15 10° NNW 23:46:11 31° NNW 23:46:11 31° NNW
NOSS 2-1 (D) 4.2 23:46:07 10° NW 23:51:11 73° SW 23:51:55 65° S
Cosmos 1934 Rocket 3.8 23:46:22 10° N 23:52:29 78° W 23:53:27 63° SSW
Cosmos 1378 Rocket 4.5 23:53:20 38° ENE 23:53:20 38° ENE 23:56:51 10° NNE
